Time,TemperatureF,DewpointF,PressureIn,WindDirection,WindDirectionDegrees,WindSpeedMPH,WindSpeedGustMPH,Humidity,HourlyPrecipIn,Conditions,Clouds,dailyrainin,SoftwareType,DateUTC
2013-06-10 00:01:00,63.1,58.2,29.73,NE,45,0.0,0.0,84,0.00,RA,FEW,0.00,WeatherDisplay:10.37,2013-06-10 05:01:00,
2013-06-10 00:06:00,63.1,58.2,29.73,NE,45,0.0,0.0,84,0.00,RA,FEW,0.00,WeatherDisplay:10.37,2013-06-10 05:06:00,
2013-06-10 00:12:00,63.1,58.2,29.73,NE,45,0.0,0.0,84,0.00,OVC,FEW,0.00,WeatherDisplay:10.37,2013-06-10 05:12:00,
2013-06-10 00:18:00,63.3,58.4,29.73,South,180,0.0,0.0,84,0.00,OVC,FEW,0.00,WeatherDisplay:10.37,2013-06-10 05:18:00,
2013-06-10 00:23:00,63.1,58.2,29.73,South,180,0.0,0.0,84,0.00,OVC,FEW,0.00,WeatherDisplay:10.37,2013-06-10 05:23:00,
2013-06-10 00:29:00,63.0,58.0,29.72,South,180,0.0,0.0,84,0.00,OVC,FEW,0.00,WeatherDisplay:10.37,2013-06-10 05:29:00,
2013-06-10 00:34:00,62.8,57.9,29.72,South,180,0.0,0.0,84,0.00,OVC,FEW,0.00,WeatherDisplay:10.37,2013-06-10 05:34:00,
2013-06-10 00:40:00,62.6,57.7,29.72,South,180,0.0,0.0,84,0.00,OVC,FEW,0.00,WeatherDisplay:10.37,2013-06-10 05:40:00,
2013-06-10 00:46:00,62.4,57.5,29.72,NE,45,0.0,0.0,84,0.00,OVC,FEW,0.00,WeatherDisplay:10.37,2013-06-10 05:46:00,
2013-06-10 00:51:00,62.2,57.3,29.71,NE,45,0.0,0.0,84,0.00,OVC,FEW,0.00,WeatherDisplay:10.37,2013-06-10 05:51:00,
2013-06-10 00:57:00,62.2,57.3,29.72,NE,45,0.0,0.0,84,0.00,OVC,FEW,0.00,WeatherDisplay:10.37,2013-06-10 05:57:00,
2013-06-10 01:02:00,62.1,57.2,29.71,NE,45,0.0,0.0,84,0.00,OVC,FEW,0.00,WeatherDisplay:10.37,2013-06-10 06:02:00,
2013-06-10 01:08:00,62.1,57.2,29.72,NE,45,0.0,0.0,84,0.00,OVC,FEW,0.00,WeatherDisplay:10.37,2013-06-10 06:08:00,
2013-06-10 01:14:00,62.2,57.3,29.72,NE,45,0.0,0.0,84,0.00,OVC,FEW,0.00,WeatherDisplay:10.37,2013-06-10 06:14:00,
2013-06-10 01:19:00,62.2,57.3,29.72,NE,45,0.0,0.0,84,0.00,OVC,FEW,0.00,WeatherDisplay:10.37,2013-06-10 06:19:00,
2013-06-10 01:25:00,62.4,57.5,29.72,NE,45,0.0,0.0,84,0.00,OVC,FEW,0.00,WeatherDisplay:10.37,2013-06-10 06:25:00,
2013-06-10 01:30:00,62.2,57.3,29.72,NE,45,0.0,0.0,84,0.00,OVC,FEW,0.00,WeatherDisplay:10.37,2013-06-10 06:30:00,
2013-06-10 01:36:00,62.1,57.2,29.72,SW,225,0.0,0.0,84,0.00,OVC,FEW,0.00,WeatherDisplay:10.37,2013-06-10 06:36:00,
2013-06-10 01:42:00,61.9,57.0,29.71,SW,225,0.0,0.0,84,0.00,OVC,FEW,0.00,WeatherDisplay:10.37,2013-06-10 06:42:00,
2013-06-10 01:47:00,61.7,56.8,29.71,SW,225,0.0,0.0,84,0.00,OVC,FEW,0.00,WeatherDisplay:10.37,2013-06-10 06:47:00,
2013-06-10 01:53:00,61.7,56.8,29.71,SW,225,0.0,0.0,84,0.00,OVC,FEW,0.00,WeatherDisplay:10.37,2013-06-10 06:53:00,
2013-06-10 01:58:00,61.5,56.6,29.71,NE,45,0.0,0.0,84,0.00,OVC,FEW,0.00,WeatherDisplay:10.37,2013-06-10 06:58:00,
2013-06-10 02:04:00,61.3,56.5,29.71,North,0,0.0,0.0,84,0.00,OVC,FEW,0.00,WeatherDisplay:10.37,2013-06-10 07:04:00,
2013-06-10 02:10:00,61.2,56.3,29.71,NW,315,0.0,0.0,84,0.00,OVC,FEW,0.00,WeatherDisplay:10.37,2013-06-10 07:10:00,
2013-06-10 02:15:00,61.3,56.5,29.71,NW,315,0.0,0.0,84,0.00,OVC,FEW,0.00,WeatherDisplay:10.37,2013-06-10 07:15:00,
2013-06-10 02:21:00,61.2,56.3,29.72,NE,45,0.0,0.0,84,0.00,OVC,FEW,0.00,WeatherDisplay:10.37,2013-06-10 07:21:00,
2013-06-10 02:26:00,61.0,56.1,29.72,North,0,0.0,0.0,84,0.00,OVC,FEW,0.00,WeatherDisplay:10.37,2013-06-10 07:26:00,
2013-06-10 02:32:00,61.2,56.3,29.71,North,0,0.0,0.0,84,0.00,OVC,FEW,0.00,WeatherDisplay:10.37,2013-06-10 07:32:00,
2013-06-10 02:38:00,61.2,56.3,29.71,North,0,0.0,0.0,84,0.00,OVC,FEW,0.00,WeatherDisplay:10.37,2013-06-10 07:38:00,
2013-06-10 02:43:00,60.8,55.9,29.71,North,0,0.0,0.0,84,0.00,OVC,FEW,0.00,WeatherDisplay:10.37,2013-06-10 07:43:00,
2013-06-10 02:49:00,60.6,55.8,29.71,North,0,0.0,0.0,84,0.00,OVC,FEW,0.00,WeatherDisplay:10.37,2013-06-10 07:49:00,
2013-06-10 02:54:00,60.4,55.6,29.71,North,0,0.0,0.0,84,0.00,OVC,FEW,0.00,WeatherDisplay:10.37,2013-06-10 07:54:00,
2013-06-10 03:00:00,60.4,55.6,29.71,North,0,0.0,0.0,84,0.00,OVC,FEW,0.00,WeatherDisplay:10.37,2013-06-10 08:00:00,
2013-06-10 03:06:00,60.4,55.6,29.71,NW,315,0.0,0.0,84,0.00,OVC,FEW,0.00,WeatherDisplay:10.37,2013-06-10 08:06:00,
2013-06-10 03:11:00,61.2,56.3,29.71,West,270,0.0,0.0,84,0.00,OVC,FEW,0.00,WeatherDisplay:10.37,2013-06-10 08:11:00,
2013-06-10 03:17:00,61.2,56.3,29.71,West,270,0.0,0.0,84,0.00,OVC,FEW,0.00,WeatherDisplay:10.37,2013-06-10 08:17:00,
2013-06-10 03:22:00,61.0,56.1,29.71,SW,225,0.0,0.0,84,0.00,OVC,FEW,0.00,WeatherDisplay:10.37,2013-06-10 08:22:00,
2013-06-10 03:28:00,61.0,56.1,29.71,SW,225,0.0,0.0,84,0.00,OVC,FEW,0.00,WeatherDisplay:10.37,2013-06-10 08:28:00,
2013-06-10 03:34:00,61.0,56.1,29.71,SW,225,0.0,0.0,84,0.00,OVC,FEW,0.00,WeatherDisplay:10.37,2013-06-10 08:34:00,
2013-06-10 03:39:00,60.8,55.9,29.70,SW,225,0.0,0.0,84,0.00,OVC,FEW,0.00,WeatherDisplay:10.37,2013-06-10 08:39:00,
2013-06-10 03:45:00,60.6,55.8,29.71,SW,225,0.0,0.0,84,0.00,OVC,FEW,0.00,WeatherDisplay:10.37,2013-06-10 08:45:00,
2013-06-10 03:50:00,60.4,55.6,29.70,SW,225,0.0,0.0,84,0.00,OVC,FEW,0.00,WeatherDisplay:10.37,2013-06-10 08:50:00,
2013-06-10 03:57:00,60.3,55.4,29.70,SW,225,0.0,0.0,84,0.00,OVC,FEW,0.00,WeatherDisplay:10.37,2013-06-10 08:57:00,
2013-06-10 04:02:00,60.1,55.2,29.70,SW,225,0.0,0.0,84,0.00,OVC,FEW,0.00,WeatherDisplay:10.37,2013-06-10 09:02:00,
2013-06-10 04:08:00,59.9,55.1,29.70,SW,225,0.0,0.0,84,0.00,OVC,FEW,0.00,WeatherDisplay:10.37,2013-06-10 09:08:00,
2013-06-10 04:14:00,59.9,55.1,29.70,North,0,0.0,0.0,84,0.00,OVC,FEW,0.00,WeatherDisplay:10.37,2013-06-10 09:14:00,
2013-06-10 04:19:00,59.9,55.1,29.70,North,0,0.0,0.0,84,0.00,OVC,FEW,0.00,WeatherDisplay:10.37,2013-06-10 09:19:00,
2013-06-10 04:25:00,59.9,55.1,29.70,North,0,0.0,0.0,84,0.00,OVC,FEW,0.00,WeatherDisplay:10.37,2013-06-10 09:25:00,
2013-06-10 04:30:00,59.9,55.1,29.71,North,0,0.0,0.0,84,0.00,OVC,FEW,0.00,WeatherDisplay:10.37,2013-06-10 09:30:00,
2013-06-10 04:36:00,59.7,54.9,29.71,NW,315,0.0,0.0,84,0.00,OVC,FEW,0.00,WeatherDisplay:10.37,2013-06-10 09:36:00,
2013-06-10 04:42:00,59.5,54.7,29.71,NW,315,0.0,0.0,84,0.00,OVC,FEW,0.00,WeatherDisplay:10.37,2013-06-10 09:42:00,
2013-06-10 04:47:00,59.5,54.7,29.72,NW,315,0.0,0.0,84,0.00,OVC,FEW,0.00,WeatherDisplay:10.37,2013-06-10 09:47:00,
2013-06-10 04:53:00,59.5,54.7,29.71,NW,315,0.0,0.0,84,0.00,OVC,FEW,0.00,WeatherDisplay:10.37,2013-06-10 09:53:00,
2013-06-10 04:58:00,59.5,54.7,29.71,NW,315,0.0,0.0,84,0.00,OVC,FEW,0.00,WeatherDisplay:10.37,2013-06-10 09:58:00,
2013-06-10 05:04:00,59.5,54.7,29.71,NW,315,0.0,0.0,84,0.00,OVC,FEW,0.00,WeatherDisplay:10.37,2013-06-10 10:04:00,
2013-06-10 05:10:00,59.7,54.9,29.72,NW,315,0.0,0.0,84,0.00,OVC,FEW,0.00,WeatherDisplay:10.37,2013-06-10 10:10:00,
2013-06-10 05:15:00,59.9,55.1,29.72,NW,315,0.0,0.0,84,0.00,OVC,FEW,0.00,WeatherDisplay:10.37,2013-06-10 10:15:00,
2013-06-10 05:21:00,60.3,55.4,29.72,NW,315,0.0,0.0,84,0.00,OVC,FEW,0.00,WeatherDisplay:10.37,2013-06-10 10:21:00,
2013-06-10 05:26:00,60.3,55.4,29.73,NW,315,0.0,0.0,84,0.00,OVC,FEW,0.00,WeatherDisplay:10.37,2013-06-10 10:26:00,
2013-06-10 05:32:00,60.4,55.6,29.72,NE,45,0.0,0.0,84,0.00,OVC,FEW,0.00,WeatherDisplay:10.37,2013-06-10 10:32:00,
2013-06-10 05:38:00,60.4,55.6,29.72,West,270,0.0,0.0,84,0.00,OVC,FEW,0.00,WeatherDisplay:10.37,2013-06-10 10:38:00,
2013-06-10 05:43:00,60.4,55.6,29.73,West,270,0.0,0.0,84,0.00,OVC,FEW,0.00,WeatherDisplay:10.37,2013-06-10 10:43:00,
2013-06-10 05:49:00,60.4,55.6,29.73,West,270,0.0,0.0,84,0.00,OVC,FEW,0.00,WeatherDisplay:10.37,2013-06-10 10:49:00,
2013-06-10 05:54:00,60.3,55.4,29.73,North,0,0.0,0.0,84,0.00,OVC,FEW,0.00,WeatherDisplay:10.37,2013-06-10 10:54:00,
2013-06-10 06:00:00,60.3,55.4,29.73,NW,315,0.0,0.0,84,0.00,OVC,FEW,0.00,WeatherDisplay:10.37,2013-06-10 11:00:00,
2013-06-10 06:06:00,60.3,55.4,29.73,North,0,0.0,0.0,84,0.00,OVC,FEW,0.00,WeatherDisplay:10.37,2013-06-10 11:06:00,
2013-06-10 06:11:00,60.3,55.4,29.73,North,0,0.0,0.0,84,0.00,OVC,FEW,0.00,WeatherDisplay:10.37,2013-06-10 11:11:00,
2013-06-10 06:17:00,60.3,55.4,29.73,North,0,0.0,0.0,84,0.00,OVC,FEW,0.00,WeatherDisplay:10.37,2013-06-10 11:17:00,
2013-06-10 06:22:00,60.4,55.6,29.73,North,0,0.0,0.0,84,0.00,OVC,FEW,0.00,WeatherDisplay:10.37,2013-06-10 11:22:00,
2013-06-10 06:28:00,60.6,55.8,29.73,West,270,0.0,0.0,84,0.00,OVC,FEW,0.00,WeatherDisplay:10.37,2013-06-10 11:28:00,
2013-06-10 06:34:00,60.8,55.9,29.73,West,270,0.0,0.0,84,0.00,OVC,FEW,0.00,WeatherDisplay:10.37,2013-06-10 11:34:00,
2013-06-10 06:39:00,61.0,56.1,29.73,West,270,0.0,0.0,84,0.00,OVC,FEW,0.00,WeatherDisplay:10.37,2013-06-10 11:39:00,
2013-06-10 06:45:00,61.5,56.6,29.74,West,270,0.0,0.0,84,0.00,OVC,FEW,0.00,WeatherDisplay:10.37,2013-06-10 11:45:00,
2013-06-10 06:50:00,61.7,56.8,29.74,West,270,0.0,0.0,84,0.00,OVC,FEW,0.00,WeatherDisplay:10.37,2013-06-10 11:50:00,
2013-06-10 06:57:00,62.1,57.2,29.74,West,270,0.0,0.0,84,0.00,OVC,FEW,0.00,WeatherDisplay:10.37,2013-06-10 11:57:00,
2013-06-10 07:02:00,61.9,57.0,29.74,West,270,0.0,0.0,84,0.00,OVC,FEW,0.00,WeatherDisplay:10.37,2013-06-10 12:02:00,
2013-06-10 07:08:00,61.9,57.0,29.74,West,270,0.0,0.0,84,0.00,OVC,FEW,0.00,WeatherDisplay:10.37,2013-06-10 12:08:00,
2013-06-10 07:14:00,62.1,57.2,29.75,West,270,0.0,0.0,84,0.00,OVC,FEW,0.00,WeatherDisplay:10.37,2013-06-10 12:14:00,
2013-06-10 07:19:00,62.2,57.3,29.75,NW,315,0.0,0.0,84,0.00,OVC,FEW,0.00,WeatherDisplay:10.37,2013-06-10 12:19:00,
2013-06-10 07:25:00,62.2,57.3,29.75,NW,315,0.7,2.2,84,0.00,OVC,FEW,0.00,WeatherDisplay:10.37,2013-06-10 12:25:00,
2013-06-10 07:30:00,62.4,57.5,29.75,NW,315,0.0,1.2,84,0.00,OVC,FEW,0.00,WeatherDisplay:10.37,2013-06-10 12:30:00,
2013-06-10 07:36:00,62.6,57.7,29.75,North,0,0.0,0.0,84,0.00,OVC,FEW,0.00,WeatherDisplay:10.37,2013-06-10 12:36:00,
2013-06-10 07:42:00,62.8,57.9,29.75,North,0,0.0,0.0,84,0.00,OVC,FEW,0.00,WeatherDisplay:10.37,2013-06-10 12:42:00,
2013-06-10 07:47:00,62.8,57.9,29.75,NW,315,0.0,1.2,84,0.00,OVC,FEW,0.00,WeatherDisplay:10.37,2013-06-10 12:47:00,
2013-06-10 07:53:00,62.8,57.9,29.75,NW,315,0.0,0.0,84,0.00,OVC,FEW,0.00,WeatherDisplay:10.37,2013-06-10 12:53:00,
2013-06-10 07:58:00,63.1,58.2,29.76,North,0,0.0,1.2,84,0.00,OVC,FEW,0.00,WeatherDisplay:10.37,2013-06-10 12:58:00,
2013-06-10 08:04:00,62.6,57.7,29.76,NW,315,1.6,3.1,84,0.00,OVC,FEW,0.00,WeatherDisplay:10.37,2013-06-10 13:04:00,
2013-06-10 08:10:00,62.6,57.7,29.76,NW,315,3.1,4.6,84,0.00,OVC,FEW,0.00,WeatherDisplay:10.37,2013-06-10 13:10:00,
2013-06-10 08:15:00,62.6,57.7,29.76,North,0,0.7,3.5,84,0.00,OVC,FEW,0.00,WeatherDisplay:10.37,2013-06-10 13:15:00,
2013-06-10 08:21:00,63.0,58.0,29.76,NW,315,0.0,3.5,84,0.00,OVC,FEW,0.00,WeatherDisplay:10.37,2013-06-10 13:21:00,
2013-06-10 08:26:00,63.3,58.4,29.76,West,270,0.7,3.5,84,0.00,OVC,FEW,0.00,WeatherDisplay:10.37,2013-06-10 13:26:00,
2013-06-10 08:32:00,63.3,58.4,29.76,NW,315,0.7,3.1,84,0.00,OVC,FEW,0.00,WeatherDisplay:10.37,2013-06-10 13:32:00,
2013-06-10 08:38:00,63.7,58.8,29.76,NW,315,0.0,0.0,84,0.00,OVC,FEW,0.00,WeatherDisplay:10.37,2013-06-10 13:38:00,
2013-06-10 08:43:00,64.0,59.1,29.76,NW,315,0.7,2.3,84,0.00,OVC,FEW,0.00,WeatherDisplay:10.37,2013-06-10 13:43:00,
2013-06-10 08:49:00,64.2,59.3,29.76,NE,45,0.0,1.2,84,0.00,OVC,FEW,0.00,WeatherDisplay:10.37,2013-06-10 13:49:00,
2013-06-10 08:54:00,64.8,59.8,29.77,NW,315,0.0,0.0,84,0.00,OVC,FEW,0.00,WeatherDisplay:10.37,2013-06-10 13:54:00,
2013-06-10 09:00:00,64.9,60.0,29.77,NW,315,0.0,1.2,84,0.00,OVC,FEW,0.00,WeatherDisplay:10.37,2013-06-10 14:00:00,
2013-06-10 09:06:00,65.5,60.5,29.77,NW,315,0.0,1.2,84,0.00,OVC,FEW,0.00,WeatherDisplay:10.37,2013-06-10 14:06:00,
2013-06-10 09:11:00,65.7,60.7,29.77,West,270,0.0,1.2,84,0.00,OVC,FEW,0.00,WeatherDisplay:10.37,2013-06-10 14:11:00,
2013-06-10 09:17:00,66.0,61.0,29.76,NW,315,0.0,2.3,84,0.00,OVC,FEW,0.00,WeatherDisplay:10.37,2013-06-10 14:17:00,
2013-06-10 09:22:00,66.2,61.2,29.76,West,270,0.0,2.3,84,0.00,OVC,FEW,0.00,WeatherDisplay:10.37,2013-06-10 14:22:00,
2013-06-10 09:28:00,66.9,61.9,29.76,South,180,0.0,2.3,84,0.00,OVC,FEW,0.00,WeatherDisplay:10.37,2013-06-10 14:28:00,
2013-06-10 09:34:00,67.8,62.8,29.77,NE,45,0.7,3.5,84,0.00,OVC,FEW,0.00,WeatherDisplay:10.37,2013-06-10 14:34:00,
2013-06-10 09:39:00,67.8,62.8,29.77,East,90,0.7,1.2,84,0.00,OVC,FEW,0.00,WeatherDisplay:10.37,2013-06-10 14:39:00,
2013-06-10 09:45:00,68.0,63.0,29.77,NW,315,2.2,4.5,84,0.00,OVC,FEW,0.00,WeatherDisplay:10.37,2013-06-10 14:45:00,
2013-06-10 09:50:00,68.4,63.3,29.77,East,90,0.0,1.2,84,0.00,OVC,FEW,0.00,WeatherDisplay:10.37,2013-06-10 14:50:00,
2013-06-10 09:56:00,68.4,63.3,29.76,NW,315,0.7,3.5,84,0.00,OVC,FEW,0.00,WeatherDisplay:10.37,2013-06-10 14:56:00,
2013-06-10 10:02:00,68.9,63.9,29.77,North,0,1.6,2.3,84,0.00,OVC,FEW,0.00,WeatherDisplay:10.37,2013-06-10 15:02:00,
2013-06-10 10:07:00,68.9,63.5,29.77,North,0,3.1,3.8,83,0.00,OVC,FEW,0.00,WeatherDisplay:10.37,2013-06-10 15:07:00,
2013-06-10 10:13:00,68.7,63.7,29.77,NE,45,0.0,1.2,84,0.00,OVC,FEW,0.00,WeatherDisplay:10.37,2013-06-10 15:13:00,
2013-06-10 10:18:00,69.3,64.2,29.77,SW,225,0.0,1.2,84,0.00,OVC,FEW,0.00,WeatherDisplay:10.37,2013-06-10 15:18:00,
2013-06-10 10:24:00,70.2,65.1,29.77,NW,315,0.0,2.3,84,0.00,OVC,FEW,0.00,WeatherDisplay:10.37,2013-06-10 15:24:00,
2013-06-10 10:30:00,70.2,64.1,29.77,North,0,0.7,2.3,81,0.00,OVC,FEW,0.00,WeatherDisplay:10.37,2013-06-10 15:30:00,
2013-06-10 10:35:00,69.8,64.1,29.78,SW,225,0.0,2.3,82,0.00,OVC,FEW,0.00,WeatherDisplay:10.37,2013-06-10 15:35:00,
2013-06-10 10:42:00,68.7,63.3,29.78,NW,315,1.6,4.5,83,0.00,OVC,FEW,0.00,WeatherDisplay:10.37,2013-06-10 15:42:00,
2013-06-10 10:47:00,68.7,63.7,29.78,West,270,0.0,1.2,84,0.00,OVC,FEW,0.00,WeatherDisplay:10.37,2013-06-10 15:47:00,
2013-06-10 10:53:00,69.1,64.0,29.79,NW,315,0.0,2.3,84,0.00,OVC,FEW,0.00,WeatherDisplay:10.37,2013-06-10 15:53:00,
2013-06-10 10:58:00,69.8,63.7,29.78,North,0,0.0,3.5,81,0.00,OVC,FEW,0.00,WeatherDisplay:10.37,2013-06-10 15:58:00,
2013-06-10 11:04:00,70.5,63.7,29.78,North,0,2.2,3.8,79,0.00,OVC,FEW,0.00,WeatherDisplay:10.37,2013-06-10 16:04:00,
2013-06-10 11:10:00,71.2,65.5,29.78,NE,45,0.0,3.5,82,0.00,OVC,FEW,0.00,WeatherDisplay:10.37,2013-06-10 16:10:00,
2013-06-10 11:15:00,72.3,65.1,29.78,East,90,0.7,3.5,78,0.00,OVC,FEW,0.00,WeatherDisplay:10.37,2013-06-10 16:15:00,
2013-06-10 11:21:00,72.7,64.7,29.79,North,0,0.0,2.3,76,0.00,OVC,FEW,0.00,WeatherDisplay:10.37,2013-06-10 16:21:00,
2013-06-10 11:26:00,73.0,64.6,29.79,East,90,0.0,0.0,75,0.00,OVC,FEW,0.00,WeatherDisplay:10.37,2013-06-10 16:26:00,
2013-06-10 11:32:00,73.4,64.6,29.80,North,0,0.0,2.3,74,0.00,OVC,FEW,0.00,WeatherDisplay:10.37,2013-06-10 16:32:00,
2013-06-10 11:38:00,72.5,63.7,29.80,NW,315,0.0,1.2,74,0.00,OVC,FEW,0.00,WeatherDisplay:10.37,2013-06-10 16:38:00,
2013-06-10 11:43:00,72.5,64.1,29.80,SW,225,0.7,1.6,75,0.00,OVC,FEW,0.00,WeatherDisplay:10.37,2013-06-10 16:43:00,
2013-06-10 11:49:00,72.1,63.4,29.80,NW,315,1.6,4.5,74,0.00,OVC,FEW,0.00,WeatherDisplay:10.37,2013-06-10 16:49:00,
2013-06-10 11:54:00,71.4,63.8,29.80,NW,315,2.2,3.8,77,0.00,OVC,FEW,0.00,WeatherDisplay:10.37,2013-06-10 16:54:00,
2013-06-10 12:00:00,71.4,64.2,29.80,NW,315,0.0,3.5,78,0.00,OVC,FEW,0.00,WeatherDisplay:10.37,2013-06-10 17:00:00,
2013-06-10 12:06:00,72.0,64.4,29.80,NW,315,0.0,4.6,77,0.00,OVC,FEW,0.00,WeatherDisplay:10.37,2013-06-10 17:06:00,
2013-06-10 12:11:00,72.1,63.8,29.80,NW,315,1.6,4.6,75,0.00,OVC,FEW,0.00,WeatherDisplay:10.37,2013-06-10 17:11:00,
2013-06-10 12:17:00,71.1,63.5,29.80,NW,315,1.6,4.6,77,0.00,OVC,FEW,0.00,WeatherDisplay:10.37,2013-06-10 17:17:00,
2013-06-10 12:22:00,71.2,63.7,29.80,North,0,0.7,6.9,77,0.00,OVC,FEW,0.00,WeatherDisplay:10.37,2013-06-10 17:22:00,
2013-06-10 12:28:00,72.0,64.7,29.80,West,270,0.0,1.2,78,0.00,OVC,FEW,0.00,WeatherDisplay:10.37,2013-06-10 17:28:00,
2013-06-10 12:34:00,71.2,63.7,29.81,West,270,2.2,5.8,77,0.00,OVC,FEW,0.00,WeatherDisplay:10.37,2013-06-10 17:34:00,
2013-06-10 12:39:00,71.4,64.2,29.81,NW,315,0.7,2.3,78,0.00,OVC,FEW,0.00,WeatherDisplay:10.37,2013-06-10 17:39:00,
2013-06-10 12:45:00,71.6,63.6,29.81,North,0,3.1,4.5,76,0.00,OVC,FEW,0.00,WeatherDisplay:10.37,2013-06-10 17:45:00,
2013-06-10 12:50:00,71.6,64.0,29.81,NW,315,0.0,9.2,77,0.00,OVC,FEW,0.00,WeatherDisplay:10.37,2013-06-10 17:50:00,
2013-06-10 12:56:00,71.6,64.0,29.81,NW,315,0.7,6.9,77,0.01,RA,FEW,0.01,WeatherDisplay:10.37,2013-06-10 17:56:00,
2013-06-10 13:02:00,72.3,63.9,29.80,NW,315,2.2,5.8,75,0.01,RA,FEW,0.01,WeatherDisplay:10.37,2013-06-10 18:02:00,
2013-06-10 13:08:00,73.9,65.5,29.80,West,270,0.7,1.6,75,0.01,OVC,FEW,0.01,WeatherDisplay:10.37,2013-06-10 18:08:00,
2013-06-10 13:14:00,75.4,65.3,29.79,NW,315,0.7,3.5,71,0.01,OVC,FEW,0.01,WeatherDisplay:10.37,2013-06-10 18:14:00,
2013-06-10 13:19:00,76.5,65.1,29.80,North,0,1.6,5.8,68,0.01,OVC,FEW,0.01,WeatherDisplay:10.37,2013-06-10 18:19:00,
2013-06-10 13:25:00,74.5,63.6,29.80,SW,225,0.0,3.5,69,0.01,OVC,FEW,0.01,WeatherDisplay:10.37,2013-06-10 18:25:00,
2013-06-10 13:30:00,75.2,63.1,29.79,North,0,2.2,5.8,66,0.01,OVC,FEW,0.01,WeatherDisplay:10.37,2013-06-10 18:30:00,
2013-06-10 13:36:00,76.6,65.7,29.79,SW,225,0.0,3.5,69,0.01,OVC,FEW,0.01,WeatherDisplay:10.37,2013-06-10 18:36:00,
2013-06-10 13:42:00,76.6,65.7,29.80,SW,225,0.0,2.3,69,0.01,OVC,FEW,0.01,WeatherDisplay:10.37,2013-06-10 18:42:00,
2013-06-10 13:47:00,78.4,65.2,29.80,NE,45,0.7,3.5,64,0.01,OVC,FEW,0.01,WeatherDisplay:10.37,2013-06-10 18:47:00,
2013-06-10 13:53:00,79.0,64.4,29.79,NE,45,2.2,2.3,61,0.01,OVC,FEW,0.01,WeatherDisplay:10.37,2013-06-10 18:53:00,
2013-06-10 13:58:00,76.3,62.3,29.79,North,0,6.0,10.7,62,0.00,OVC,FEW,0.01,WeatherDisplay:10.37,2013-06-10 18:58:00,
2013-06-10 14:04:00,76.5,63.4,29.79,North,0,3.8,5.8,64,0.00,OVC,FEW,0.01,WeatherDisplay:10.37,2013-06-10 19:04:00,
2013-06-10 14:10:00,77.0,65.2,29.80,NW,315,0.7,5.8,67,0.00,OVC,FEW,0.01,WeatherDisplay:10.37,2013-06-10 19:10:00,
2013-06-10 14:15:00,78.4,63.9,29.79,NW,315,1.6,6.9,61,0.00,OVC,FEW,0.01,WeatherDisplay:10.37,2013-06-10 19:15:00,
2013-06-10 14:21:00,78.3,64.2,29.79,West,270,2.2,4.6,62,0.00,OVC,FEW,0.01,WeatherDisplay:10.37,2013-06-10 19:21:00,
2013-06-10 14:26:00,78.1,64.0,29.79,NW,315,3.1,11.5,62,0.00,OVC,FEW,0.01,WeatherDisplay:10.37,2013-06-10 19:26:00,
2013-06-10 14:32:00,78.3,64.2,29.79,NW,315,2.2,5.8,62,0.00,OVC,FEW,0.01,WeatherDisplay:10.37,2013-06-10 19:32:00,
2013-06-10 14:38:00,77.7,62.7,29.80,NW,315,3.1,8.1,60,0.00,OVC,FEW,0.01,WeatherDisplay:10.37,2013-06-10 19:38:00,
2013-06-10 14:43:00,77.7,64.1,29.80,NW,315,2.2,4.6,63,0.00,OVC,FEW,0.01,WeatherDisplay:10.37,2013-06-10 19:43:00,
2013-06-10 14:49:00,79.2,62.6,29.80,NW,315,2.2,2.3,57,0.00,OVC,FEW,0.01,WeatherDisplay:10.37,2013-06-10 19:49:00,
2013-06-10 14:54:00,78.3,63.7,29.80,East,90,1.6,5.8,61,0.00,OVC,FEW,0.01,WeatherDisplay:10.37,2013-06-10 19:54:00,
2013-06-10 15:00:00,79.3,64.7,29.80,North,0,0.7,9.2,61,0.00,OVC,FEW,0.01,WeatherDisplay:10.37,2013-06-10 20:00:00,
2013-06-10 15:06:00,81.3,65.1,29.80,NW,315,0.0,2.3,58,0.00,OVC,FEW,0.01,WeatherDisplay:10.37,2013-06-10 20:06:00,
2013-06-10 15:11:00,80.2,62.1,29.79,NW,315,3.1,8.1,54,0.00,OVC,FEW,0.01,WeatherDisplay:10.37,2013-06-10 20:11:00,
2013-06-10 15:17:00,80.1,62.9,29.80,West,270,2.2,4.6,56,0.00,OVC,FEW,0.01,WeatherDisplay:10.37,2013-06-10 20:17:00,
2013-06-10 15:22:00,79.7,62.1,29.79,NW,315,1.6,4.6,55,0.00,OVC,FEW,0.01,WeatherDisplay:10.37,2013-06-10 20:22:00,
2013-06-10 15:28:00,79.7,64.1,29.79,North,0,0.0,4.6,59,0.00,OVC,FEW,0.01,WeatherDisplay:10.37,2013-06-10 20:28:00,
2013-06-10 15:34:00,79.9,63.3,29.79,NW,315,2.2,10.4,57,0.00,OVC,FEW,0.01,WeatherDisplay:10.37,2013-06-10 20:34:00,
2013-06-10 15:39:00,79.0,63.4,29.79,North,0,2.2,4.6,59,0.00,OVC,FEW,0.01,WeatherDisplay:10.37,2013-06-10 20:39:00,
2013-06-10 15:45:00,79.9,63.3,29.79,NW,315,3.1,8.1,57,0.00,OVC,FEW,0.01,WeatherDisplay:10.37,2013-06-10 20:45:00,
2013-06-10 15:50:00,80.4,63.8,29.79,NW,315,1.6,6.9,57,0.00,OVC,FEW,0.01,WeatherDisplay:10.37,2013-06-10 20:50:00,
2013-06-10 15:56:00,81.5,62.7,29.80,NW,315,3.1,9.2,53,0.00,OVC,FEW,0.01,WeatherDisplay:10.37,2013-06-10 20:56:00,
2013-06-10 16:02:00,81.5,63.3,29.80,West,270,1.6,6.9,54,0.00,OVC,FEW,0.01,WeatherDisplay:10.37,2013-06-10 21:02:00,
2013-06-10 16:07:00,82.4,63.5,29.80,NW,315,0.0,3.5,53,0.00,OVC,FEW,0.01,WeatherDisplay:10.37,2013-06-10 21:07:00,
2013-06-10 16:13:00,83.1,63.7,29.80,SW,225,0.7,3.5,52,0.00,OVC,FEW,0.01,WeatherDisplay:10.37,2013-06-10 21:13:00,
2013-06-10 16:18:00,79.7,61.1,29.80,West,270,2.2,6.9,53,0.00,OVC,FEW,0.01,WeatherDisplay:10.37,2013-06-10 21:18:00,
2013-06-10 16:24:00,80.2,62.6,29.80,NW,315,2.2,6.0,55,0.00,OVC,FEW,0.01,WeatherDisplay:10.37,2013-06-10 21:24:00,
2013-06-10 16:30:00,80.4,62.2,29.80,NW,315,1.6,5.4,54,0.00,OVC,FEW,0.01,WeatherDisplay:10.37,2013-06-10 21:30:00,
2013-06-10 16:35:00,79.3,61.2,29.80,West,270,2.2,8.1,54,0.00,OVC,FEW,0.01,WeatherDisplay:10.37,2013-06-10 21:35:00,
2013-06-10 16:42:00,78.8,62.3,29.80,NW,315,1.6,8.1,57,0.00,OVC,FEW,0.01,WeatherDisplay:10.37,2013-06-10 21:42:00,
2013-06-10 16:47:00,78.3,61.8,29.80,NW,315,0.7,6.9,57,0.00,OVC,FEW,0.01,WeatherDisplay:10.37,2013-06-10 21:47:00,
2013-06-10 16:53:00,77.7,60.8,29.80,NW,315,3.1,6.9,56,0.00,OVC,FEW,0.01,WeatherDisplay:10.37,2013-06-10 21:53:00,
2013-06-10 16:58:00,77.7,62.7,29.80,North,0,0.7,2.3,60,0.00,OVC,FEW,0.01,WeatherDisplay:10.37,2013-06-10 21:58:00,
2013-06-10 17:04:00,77.7,61.3,29.80,South,180,0.7,2.3,57,0.00,OVC,FEW,0.01,WeatherDisplay:10.37,2013-06-10 22:04:00,
2013-06-10 17:10:00,78.1,60.6,29.80,NW,315,2.2,4.6,55,0.00,OVC,FEW,0.01,WeatherDisplay:10.37,2013-06-10 22:10:00,
2013-06-10 17:15:00,77.5,61.1,29.80,NW,315,0.7,4.6,57,0.00,OVC,FEW,0.01,WeatherDisplay:10.37,2013-06-10 22:15:00,
2013-06-10 17:21:00,77.7,61.3,29.80,NW,315,1.6,8.1,57,0.00,OVC,FEW,0.01,WeatherDisplay:10.37,2013-06-10 22:21:00,
2013-06-10 17:26:00,78.1,62.6,29.80,SW,225,0.7,3.8,59,0.00,OVC,FEW,0.01,WeatherDisplay:10.37,2013-06-10 22:26:00,
2013-06-10 17:32:00,78.1,61.6,29.80,NW,315,0.7,3.5,57,0.00,OVC,FEW,0.01,WeatherDisplay:10.37,2013-06-10 22:32:00,
2013-06-10 17:38:00,78.1,60.6,29.80,NW,315,1.6,6.9,55,0.00,OVC,FEW,0.01,WeatherDisplay:10.37,2013-06-10 22:38:00,
2013-06-10 17:43:00,78.1,61.6,29.81,NE,45,1.6,10.4,57,0.00,OVC,FEW,0.01,WeatherDisplay:10.37,2013-06-10 22:43:00,
2013-06-10 17:49:00,77.7,61.8,29.80,NW,315,2.2,3.8,58,0.00,OVC,FEW,0.01,WeatherDisplay:10.37,2013-06-10 22:49:00,
2013-06-10 17:54:00,77.4,61.4,29.80,NW,315,3.8,6.9,58,0.00,OVC,FEW,0.01,WeatherDisplay:10.37,2013-06-10 22:54:00,
2013-06-10 18:00:00,77.4,60.4,29.80,North,0,2.2,5.8,56,0.00,OVC,FEW,0.01,WeatherDisplay:10.37,2013-06-10 23:00:00,
2013-06-10 18:06:00,77.4,60.4,29.80,NW,315,2.2,5.4,56,0.00,OVC,FEW,0.01,WeatherDisplay:10.37,2013-06-10 23:06:00,
2013-06-10 18:11:00,77.4,60.9,29.80,NW,315,3.1,5.8,57,0.00,OVC,FEW,0.01,WeatherDisplay:10.37,2013-06-10 23:11:00,
2013-06-10 18:17:00,77.7,61.8,29.80,West,270,0.0,1.6,58,0.00,OVC,FEW,0.01,WeatherDisplay:10.37,2013-06-10 23:17:00,
2013-06-10 18:22:00,77.7,61.8,29.79,West,270,0.7,2.3,58,0.00,OVC,FEW,0.01,WeatherDisplay:10.37,2013-06-10 23:22:00,
2013-06-10 18:28:00,77.2,60.8,29.79,North,0,3.1,5.8,57,0.00,OVC,FEW,0.01,WeatherDisplay:10.37,2013-06-10 23:28:00,
2013-06-10 18:34:00,77.0,60.6,29.79,NW,315,1.6,5.8,57,0.00,OVC,FEW,0.01,WeatherDisplay:10.37,2013-06-10 23:34:00,
2013-06-10 18:39:00,77.0,60.6,29.79,North,0,0.0,4.6,57,0.00,OVC,FEW,0.01,WeatherDisplay:10.37,2013-06-10 23:39:00,
2013-06-10 18:45:00,76.6,60.3,29.79,NW,315,0.7,3.5,57,0.00,OVC,FEW,0.01,WeatherDisplay:10.37,2013-06-10 23:45:00,
2013-06-10 18:50:00,77.0,60.1,29.80,NW,315,0.0,2.3,56,0.00,OVC,FEW,0.01,WeatherDisplay:10.37,2013-06-10 23:50:00,
2013-06-10 18:56:00,76.8,59.9,29.80,NW,315,0.0,4.6,56,0.00,OVC,FEW,0.01,WeatherDisplay:10.37,2013-06-10 23:56:00,
2013-06-10 19:02:00,76.6,59.8,29.80,NW,315,2.2,5.8,56,0.00,OVC,FEW,0.01,WeatherDisplay:10.37,2013-06-11 00:02:00,
2013-06-10 19:07:00,76.6,60.8,29.80,West,270,0.0,3.5,58,0.00,OVC,FEW,0.01,WeatherDisplay:10.37,2013-06-11 00:07:00,
2013-06-10 19:13:00,76.6,60.8,29.80,South,180,0.0,1.2,58,0.00,OVC,FEW,0.01,WeatherDisplay:10.37,2013-06-11 00:13:00,
2013-06-10 19:18:00,76.5,60.6,29.80,North,0,0.7,2.3,58,0.00,OVC,FEW,0.01,WeatherDisplay:10.37,2013-06-11 00:18:00,
2013-06-10 19:24:00,76.3,61.4,29.80,West,270,0.0,0.0,60,0.00,OVC,FEW,0.01,WeatherDisplay:10.37,2013-06-11 00:24:00,
2013-06-10 19:30:00,76.1,60.2,29.80,NW,315,1.6,2.3,58,0.00,OVC,FEW,0.01,WeatherDisplay:10.37,2013-06-11 00:30:00,
2013-06-10 19:35:00,76.1,60.2,29.80,NW,315,0.0,2.3,58,0.00,OVC,FEW,0.01,WeatherDisplay:10.37,2013-06-11 00:35:00,
2013-06-10 19:42:00,75.9,61.0,29.80,East,90,0.0,1.2,60,0.00,OVC,FEW,0.01,WeatherDisplay:10.37,2013-06-11 00:42:00,
2013-06-10 19:47:00,75.9,61.0,29.80,South,180,0.0,0.0,60,0.00,OVC,FEW,0.01,WeatherDisplay:10.37,2013-06-11 00:47:00,
2013-06-10 19:53:00,75.7,60.9,29.80,South,180,0.0,1.2,60,0.00,OVC,FEW,0.01,WeatherDisplay:10.37,2013-06-11 00:53:00,
2013-06-10 19:58:00,75.2,60.8,29.80,North,0,0.0,0.0,61,0.00,OVC,FEW,0.01,WeatherDisplay:10.37,2013-06-11 00:58:00,
2013-06-10 20:04:00,74.8,60.5,29.80,NW,315,0.0,0.0,61,0.00,OVC,FEW,0.01,WeatherDisplay:10.37,2013-06-11 01:04:00,
2013-06-10 20:10:00,74.3,60.9,29.80,SW,225,0.0,0.0,63,0.00,OVC,FEW,0.01,WeatherDisplay:10.37,2013-06-11 01:10:00,
2013-06-10 20:15:00,73.8,60.4,29.79,SW,225,0.0,0.0,63,0.00,OVC,FEW,0.01,WeatherDisplay:10.37,2013-06-11 01:15:00,
2013-06-10 20:21:00,73.6,60.6,29.80,SW,225,0.0,0.0,64,0.00,OVC,FEW,0.01,WeatherDisplay:10.37,2013-06-11 01:21:00,
2013-06-10 20:26:00,72.9,60.8,29.80,SW,225,0.0,0.0,66,0.00,OVC,FEW,0.01,WeatherDisplay:10.37,2013-06-11 01:26:00,
2013-06-10 20:32:00,72.3,61.2,29.80,SW,225,0.0,0.0,68,0.00,OVC,FEW,0.01,WeatherDisplay:10.37,2013-06-11 01:32:00,
2013-06-10 20:38:00,71.6,60.9,29.80,SW,225,0.0,0.0,69,0.00,OVC,FEW,0.01,WeatherDisplay:10.37,2013-06-11 01:38:00,
2013-06-10 20:43:00,71.1,60.8,29.80,SW,225,0.0,0.0,70,0.00,OVC,FEW,0.01,WeatherDisplay:10.37,2013-06-11 01:43:00,
2013-06-10 20:49:00,70.7,60.8,29.80,SW,225,0.0,0.0,71,0.00,OVC,FEW,0.01,WeatherDisplay:10.37,2013-06-11 01:49:00,
2013-06-10 20:54:00,70.3,60.9,29.80,SW,225,0.0,0.0,72,0.00,OVC,FEW,0.01,WeatherDisplay:10.37,2013-06-11 01:54:00,
2013-06-10 21:00:00,70.0,60.9,29.81,SW,225,0.0,0.0,73,0.00,OVC,FEW,0.01,WeatherDisplay:10.37,2013-06-11 02:00:00,
2013-06-10 21:06:00,69.8,61.1,29.80,SW,225,0.0,0.0,74,0.00,OVC,FEW,0.01,WeatherDisplay:10.37,2013-06-11 02:06:00,
2013-06-10 21:11:00,69.4,61.2,29.81,SW,225,0.0,0.0,75,0.00,OVC,FEW,0.01,WeatherDisplay:10.37,2013-06-11 02:11:00,
2013-06-10 21:17:00,69.1,61.2,29.81,SW,225,0.0,0.0,76,0.00,OVC,FEW,0.01,WeatherDisplay:10.37,2013-06-11 02:17:00,
2013-06-10 21:22:00,68.7,61.2,29.81,SW,225,0.0,0.0,77,0.00,OVC,FEW,0.01,WeatherDisplay:10.37,2013-06-11 02:22:00,
2013-06-10 21:28:00,68.4,61.2,29.81,SW,225,0.0,0.0,78,0.00,OVC,FEW,0.01,WeatherDisplay:10.37,2013-06-11 02:28:00,
2013-06-10 21:34:00,68.5,62.5,29.81,North,0,0.0,1.2,81,0.00,OVC,FEW,0.01,WeatherDisplay:10.37,2013-06-11 02:34:00,
2013-06-10 21:39:00,68.5,62.1,29.82,West,270,0.0,0.0,80,0.00,OVC,FEW,0.01,WeatherDisplay:10.37,2013-06-11 02:39:00,
2013-06-10 21:45:00,68.5,62.8,29.82,SW,225,0.0,0.0,82,0.00,OVC,FEW,0.01,WeatherDisplay:10.37,2013-06-11 02:45:00,
2013-06-10 21:50:00,68.2,62.5,29.82,SW,225,0.0,0.0,82,0.00,OVC,FEW,0.01,WeatherDisplay:10.37,2013-06-11 02:50:00,
2013-06-10 21:56:00,67.8,62.5,29.82,SW,225,0.0,0.0,83,0.00,OVC,FEW,0.01,WeatherDisplay:10.37,2013-06-11 02:56:00,
2013-06-10 22:02:00,67.5,62.1,29.82,SW,225,0.0,0.0,83,0.00,OVC,FEW,0.01,WeatherDisplay:10.37,2013-06-11 03:02:00,
2013-06-10 22:07:00,67.3,62.3,29.83,SW,225,0.0,0.0,84,0.00,OVC,FEW,0.01,WeatherDisplay:10.37,2013-06-11 03:07:00,
2013-06-10 22:13:00,67.1,62.1,29.83,SW,225,0.0,0.0,84,0.00,OVC,FEW,0.01,WeatherDisplay:10.37,2013-06-11 03:13:00,
2013-06-10 22:18:00,66.7,61.7,29.83,SW,225,0.0,0.0,84,0.00,OVC,FEW,0.01,WeatherDisplay:10.37,2013-06-11 03:18:00,
2013-06-10 22:24:00,66.4,61.4,29.83,SW,225,0.0,0.0,84,0.00,OVC,FEW,0.01,WeatherDisplay:10.37,2013-06-11 03:24:00,
2013-06-10 22:30:00,66.2,61.2,29.83,SW,225,0.0,0.0,84,0.00,OVC,FEW,0.01,WeatherDisplay:10.37,2013-06-11 03:30:00,
2013-06-10 22:35:00,66.0,61.0,29.83,SW,225,0.0,0.0,84,0.00,OVC,FEW,0.01,WeatherDisplay:10.37,2013-06-11 03:35:00,
2013-06-10 22:41:00,66.0,61.0,29.83,SW,225,0.0,0.0,84,0.00,OVC,FEW,0.01,WeatherDisplay:10.37,2013-06-11 03:41:00,
2013-06-10 22:46:00,65.8,60.9,29.83,SW,225,0.0,0.0,84,0.00,OVC,FEW,0.01,WeatherDisplay:10.37,2013-06-11 03:46:00,
2013-06-10 22:52:00,65.7,60.7,29.83,SW,225,0.0,0.0,84,0.00,OVC,FEW,0.01,WeatherDisplay:10.37,2013-06-11 03:52:00,
2013-06-10 22:58:00,65.5,60.5,29.83,SW,225,0.0,0.0,84,0.00,OVC,FEW,0.01,WeatherDisplay:10.37,2013-06-11 03:58:00,
2013-06-10 23:01:00,65.3,60.3,29.83,SW,225,0.0,0.0,84,0.00,OVC,FEW,0.01,WeatherDisplay:10.37,2013-06-11 04:01:00,
2013-06-10 23:03:00,65.1,60.2,29.83,SW,225,0.0,0.0,84,0.00,OVC,FEW,0.01,WeatherDisplay:10.37,2013-06-11 04:03:00,
2013-06-10 23:05:00,65.1,60.2,29.83,SW,225,0.0,0.0,84,0.00,OVC,FEW,0.01,WeatherDisplay:10.37,2013-06-11 04:05:00,
2013-06-10 23:06:00,65.1,60.2,29.83,SW,225,0.0,0.0,84,0.00,OVC,FEW,0.01,WeatherDisplay:10.37,2013-06-11 04:06:00,
2013-06-10 23:11:00,64.9,60.0,29.83,SW,225,0.0,0.0,84,0.00,OVC,FEW,0.01,WeatherDisplay:10.37,2013-06-11 04:11:00,
2013-06-10 23:15:00,64.8,59.8,29.83,SW,225,0.0,0.0,84,0.00,OVC,FEW,0.01,WeatherDisplay:10.37,2013-06-11 04:15:00,
2013-06-10 23:21:00,64.6,59.6,29.83,SW,225,0.0,0.0,84,0.00,OVC,FEW,0.01,WeatherDisplay:10.37,2013-06-11 04:21:00,
2013-06-10 23:26:00,64.6,59.6,29.83,SW,225,0.0,0.0,84,0.00,OVC,FEW,0.01,WeatherDisplay:10.37,2013-06-11 04:26:00,
2013-06-10 23:32:00,64.6,59.6,29.83,SW,225,0.0,0.0,84,0.00,OVC,FEW,0.01,WeatherDisplay:10.37,2013-06-11 04:32:00,
2013-06-10 23:38:00,64.4,59.5,29.83,SW,225,0.0,0.0,84,0.00,OVC,FEW,0.01,WeatherDisplay:10.37,2013-06-11 04:38:00,
2013-06-10 23:43:00,64.2,59.3,29.83,SW,225,0.0,0.0,84,0.00,OVC,FEW,0.01,WeatherDisplay:10.37,2013-06-11 04:43:00,
2013-06-10 23:49:00,64.4,59.5,29.83,SW,225,0.0,0.0,84,0.00,OVC,FEW,0.01,WeatherDisplay:10.37,2013-06-11 04:49:00,
2013-06-10 23:54:00,64.0,59.1,29.83,SW,225,0.0,0.0,84,0.00,OVC,FEW,0.01,WeatherDisplay:10.37,2013-06-11 04:54:00,